Owatonna, MN

10:42 AM CDT on June 28, 2017 (GMT -0500)
Owatonna Degner Regional

Weather History for KOWA - May, 2013

Change the Weather History Date:

Tuesday, May 21, 2013

  Actual Average Record
Temperature  
Mean Temperature 60 °F -  
Max Temperature 64 °F 75 °F 90 °F (1964)
Min Temperature 57 °F 49 °F 33 °F (1979)
Degree Days  
Heating Degree Days 4    
Growing Degree Days 10 (Base 50)    
Moisture  
Dew Point 55 °F    
Average Humidity 83    
Maximum Humidity 94    
Minimum Humidity 68    
Precipitation  
Precipitation 0.00 in - - ()
Sea Level Pressure  
Sea Level Pressure 29.60 in    
Wind  
Wind Speed 8 mph (South)    
Max Wind Speed 17 mph    
Max Gust Speed 20 mph    
Visibility 10 miles    
Events Rain    
Averages and records for this station are not official NWS values.
T = Trace of Precipitation, MM = Missing Value Source: NWS Daily Summary

Daily Weather History Graph

Daily Weather History Graph

Search for Another Location

Airport or City:

Trip Planner

Search our weather history database for the weather conditions in past years. The results will help you decide how hot, cold, wet, or windy it might be!

Date:

Astronomy

May. 21, 2013 Rise Set
Actual Time 5:40 AM CDT 8:39 PM CDT
Civil Twilight 5:06 AM CDT 9:13 PM CDT
Nautical Twilight 4:22 AM CDT 9:57 PM CDT
Astronomical Twilight 3:30 AM CDT 10:50 PM CDT
Moon 4:46 PM CDT (5/21) 3:17 AM CDT (5/21)
Length of Visible Light 16h 07m
Length of Day
14h 59m
Waxing Gibbous, 84% of the Moon is Illuminated
May 21
Waxing Gibbous
May 24
Full
May 31
Last Quarter
Jun 8
New
Jun 16
First Quarter

Hourly Weather History & Observations

Time (CDT) Temp. Dew Point Humidity Pressure Visibility Wind Dir Wind Speed Gust Speed Precip Events Conditions
12:14 AM 59.0 °F 55.4 °F 88% 29.56 in 10.0 mi SE 10.4 mph - N/A   Mostly Cloudy
12:34 AM 59.0 °F 55.4 °F 88% 29.55 in 10.0 mi SE 8.1 mph - N/A   Scattered Clouds
12:54 AM 59.0 °F 55.4 °F 88% 29.54 in 10.0 mi SE 8.1 mph - N/A   Scattered Clouds
1:14 AM 59.0 °F 55.4 °F 88% 29.54 in 10.0 mi SE 8.1 mph - N/A   Clear
1:34 AM 57.2 °F 55.4 °F 94% 29.53 in 10.0 mi SE 6.9 mph - N/A   Clear
1:54 AM 57.2 °F 55.4 °F 94% 29.54 in 10.0 mi SE 6.9 mph - N/A   Clear
2:14 AM 59.0 °F 55.4 °F 88% 29.53 in 10.0 mi SE 8.1 mph - N/A   Scattered Clouds
2:34 AM 60.8 °F 57.2 °F 88% 29.53 in 10.0 mi SE 9.2 mph - N/A   Overcast
2:54 AM 60.8 °F 57.2 °F 88% 29.52 in 10.0 mi SE 9.2 mph - N/A   Overcast
3:14 AM 60.8 °F 57.2 °F 88% 29.52 in 10.0 mi SE 9.2 mph - N/A   Overcast
3:34 AM 60.8 °F 57.2 °F 88% 29.51 in 10.0 mi ESE 8.1 mph - N/A   Overcast
3:54 AM 60.8 °F 57.2 °F 88% 29.51 in 10.0 mi ESE 9.2 mph - N/A   Overcast
4:14 AM 60.8 °F 57.2 °F 88% 29.51 in 10.0 mi ESE 10.4 mph - N/A   Mostly Cloudy
4:34 AM 60.8 °F 57.2 °F 88% 29.52 in 10.0 mi SE 9.2 mph - N/A   Overcast
4:54 AM 60.8 °F 57.2 °F 88% 29.52 in 10.0 mi SE 8.1 mph - N/A   Mostly Cloudy
5:14 AM 60.8 °F 57.2 °F 88% 29.52 in 10.0 mi SE 8.1 mph - N/A   Overcast
5:34 AM 60.8 °F 57.2 °F 88% 29.52 in 10.0 mi SE 8.1 mph - N/A   Overcast
5:54 AM 60.8 °F 57.2 °F 88% 29.53 in 10.0 mi SE 6.9 mph - N/A   Mostly Cloudy
6:14 AM 60.8 °F 57.2 °F 88% 29.54 in 10.0 mi NNE 5.8 mph - N/A   Mostly Cloudy
6:35 AM 60.8 °F 57.2 °F 88% 29.54 in 10.0 mi SE 6.9 mph - N/A   Overcast
6:54 AM 60.8 °F 57.2 °F 88% 29.55 in 10.0 mi SSE 8.1 mph - N/A   Overcast
7:14 AM 60.8 °F 57.2 °F 88% 29.55 in 10.0 mi South 6.9 mph - N/A   Overcast
7:34 AM 60.8 °F 57.2 °F 88% 29.55 in 7.0 mi South 5.8 mph - N/A   Overcast
7:54 AM 60.8 °F 57.2 °F 88% 29.56 in 7.0 mi South 6.9 mph - N/A   Overcast
8:14 AM 60.8 °F 57.2 °F 88% 29.56 in 10.0 mi SSW 8.1 mph - N/A   Mostly Cloudy
8:34 AM 60.8 °F 57.2 °F 88% 29.56 in 10.0 mi SSW 8.1 mph - N/A   Mostly Cloudy
8:54 AM 60.8 °F 57.2 °F 88% 29.57 in 10.0 mi SW 9.2 mph - N/A   Mostly Cloudy
9:14 AM 60.8 °F 57.2 °F 88% 29.58 in 10.0 mi SSW 10.4 mph - N/A   Overcast
9:34 AM 60.8 °F 57.2 °F 88% 29.58 in 10.0 mi SW 11.5 mph - N/A   Overcast
9:54 AM 60.8 °F 55.4 °F 82% 29.58 in 10.0 mi SW 12.7 mph - N/A   Overcast
10:14 AM 60.8 °F 55.4 °F 82% 29.58 in 10.0 mi SW 13.8 mph - N/A   Overcast
10:34 AM 62.6 °F 55.4 °F 77% 29.59 in 10.0 mi SSW 10.4 mph - N/A   Overcast
10:54 AM 62.6 °F 55.4 °F 77% 29.59 in 10.0 mi SSW 9.2 mph 19.6 mph N/A   Overcast
11:14 AM 62.6 °F 53.6 °F 72% 29.60 in 10.0 mi SSW 12.7 mph - N/A   Overcast
11:34 AM 62.6 °F 55.4 °F 77% 29.60 in 10.0 mi South 10.4 mph 16.1 mph N/A   Overcast
11:54 AM 64.4 °F 55.4 °F 73% 29.60 in 10.0 mi South 12.7 mph - N/A   Overcast
12:14 PM 62.6 °F 55.4 °F 77% 29.61 in 10.0 mi South 11.5 mph - N/A   Overcast
12:34 PM 62.6 °F 55.4 °F 77% 29.61 in 10.0 mi SSW 10.4 mph - N/A   Overcast
12:54 PM 62.6 °F 55.4 °F 77% 29.61 in 10.0 mi SSW 8.1 mph - N/A   Overcast
1:14 PM 64.4 °F 55.4 °F 73% 29.61 in 10.0 mi SSW 12.7 mph - N/A   Overcast
1:34 PM 64.4 °F 55.4 °F 73% 29.62 in 10.0 mi SSW 12.7 mph - N/A   Mostly Cloudy
1:54 PM 64.4 °F 55.4 °F 73% 29.62 in 10.0 mi SSW 9.2 mph - N/A   Mostly Cloudy
2:14 PM 62.6 °F 55.4 °F 77% 29.63 in 10.0 mi South 17.3 mph - N/A   Overcast
2:34 PM 60.8 °F 55.4 °F 82% 29.64 in 3.0 mi South 10.4 mph - N/A   Drizzle
2:54 PM 60.8 °F 55.4 °F 82% 29.64 in 10.0 mi South 6.9 mph - N/A   Drizzle
3:14 PM 62.6 °F 55.4 °F 77% 29.64 in 7.0 mi SW 10.4 mph - N/A Rain Rain
3:34 PM 60.8 °F 55.4 °F 82% 29.65 in 10.0 mi WSW 8.1 mph - N/A Rain Rain
3:54 PM 60.8 °F 55.4 °F 82% 29.65 in 7.0 mi West 8.1 mph - N/A   Drizzle
4:14 PM 60.8 °F 55.4 °F 82% 29.65 in 10.0 mi SW 5.8 mph - N/A   Overcast
4:34 PM 62.6 °F 55.4 °F 77% 29.65 in 10.0 mi SSW 8.1 mph - N/A   Overcast
4:54 PM 62.6 °F 53.6 °F 72% 29.65 in 10.0 mi SW 11.5 mph - N/A   Mostly Cloudy
5:14 PM 62.6 °F 53.6 °F 72% 29.65 in 10.0 mi WSW 9.2 mph - N/A   Mostly Cloudy
5:34 PM 62.6 °F 55.4 °F 77% 29.65 in 10.0 mi West 4.6 mph - N/A   Overcast
5:54 PM 62.6 °F 51.8 °F 68% 29.65 in 10.0 mi SW 5.8 mph - N/A   Overcast
6:14 PM 62.6 °F 53.6 °F 72% 29.65 in 10.0 mi WSW 5.8 mph - N/A   Overcast
6:34 PM 62.6 °F 53.6 °F 72% 29.65 in 10.0 mi SW 3.5 mph - N/A   Overcast
6:54 PM 60.8 °F 53.6 °F 77% 29.65 in 10.0 mi West 4.6 mph - N/A   Overcast
7:14 PM 60.8 °F 53.6 °F 77% 29.66 in 10.0 mi WSW 3.5 mph - N/A   Overcast
7:34 PM 60.8 °F 53.6 °F 77% 29.67 in 10.0 mi Calm Calm - N/A   Overcast
7:54 PM 60.8 °F 53.6 °F 77% 29.67 in 10.0 mi Calm Calm - N/A   Overcast
8:14 PM 60.8 °F 53.6 °F 77% 29.67 in 10.0 mi South 3.5 mph - N/A   Overcast
8:34 PM 59.0 °F 53.6 °F 82% 29.68 in 10.0 mi SSE 3.5 mph - N/A   Overcast
8:54 PM 59.0 °F 53.6 °F 82% 29.68 in 10.0 mi SSE 3.5 mph - N/A   Overcast
9:14 PM 59.0 °F 53.6 °F 82% 29.68 in 10.0 mi Calm Calm - N/A   Overcast
9:34 PM 59.0 °F 53.6 °F 82% 29.68 in 10.0 mi Calm Calm - N/A   Overcast
9:54 PM 57.2 °F 53.6 °F 88% 29.68 in 10.0 mi Calm Calm - N/A   Overcast
10:14 PM 57.2 °F 53.6 °F 88% 29.68 in 10.0 mi Calm Calm - N/A   Overcast
10:34 PM 59.0 °F 53.6 °F 82% 29.68 in 10.0 mi Calm Calm - N/A   Overcast
10:54 PM 57.2 °F 53.6 °F 88% 29.68 in 10.0 mi Calm Calm - N/A   Overcast
11:14 PM 57.2 °F 53.6 °F 88% 29.68 in 10.0 mi Calm Calm - N/A   Overcast
11:34 PM 57.2 °F 55.4 °F 94% 29.68 in 10.0 mi Calm Calm - N/A   Overcast
11:54 PM 57.2 °F 55.4 °F 94% 29.68 in 10.0 mi Calm Calm - N/A   Overcast